START_TIME,STEP,MOV.,M15,t_acc.,M20,t_acc.
1986-01-25 12:00:45.290 ,6,0,0.,24.0,0.,24.0
1986-01-25 12:01:09.290 ,6,0,0.,24.0,0.,24.0
1986-01-25 12:01:33.290 ,6,0,0.,24.0,0.,24.0
1986-01-25 12:01:57.290 ,6,0,0.,24.0,0.,24.0
1986-01-25 12:02:21.290 ,6,0,0.,24.0,0.,24.0
1986-01-25 12:02:45.290 ,6,0,0.,24.0,0.,24.0
1986-01-25 12:03:09.290 ,6,0,0.,24.0,0.,24.0
1986-01-25 12:03:33.290 ,6,0,0.,24.0,0.,24.0
1986-01-25 12:03:57.290 ,6,0,0.,24.0,0.,24.0
1986-01-25 12:04:21.290 ,6,0,0.,24.0,0.,24.0
1986-01-25 12:04:45.290 ,6,0,0.,24.0,0.,24.0
1986-01-25 12:05:09.290 ,6,0,0.,24.0,0.,24.0
1986-01-25 12:05:33.290 ,6,0,2.,24.0,0.,24.0
1986-01-25 12:05:57.290 ,6,0,0.,24.0,0.,24.0
1986-01-25 12:06:21.290 ,6,0,0.,24.0,0.,24.0
1986-01-25 12:06:45.290 ,6,0,0.,24.0,0.,24.0
1986-01-25 12:07:09.290 ,0,0,,0,,0
1986-01-25 12:07:32.090 ,0,0,,0,,0
1986-01-25 12:07:33.290 ,6,0,1.,24.0,0.,24.0
1986-01-25 12:07:57.290 ,6,0,0.,24.0,0.,24.0
1986-01-25 12:08:21.290 ,6,0,0.,24.0,0.,24.0
1986-01-25 12:08:45.290 ,6,0,0.,24.0,0.,24.0
1986-01-25 12:09:09.290 ,5,1,0.,24.0,0.,24.0
1986-01-25 12:09:33.290 ,1,1,0.,24.0,0.,24.0
1986-01-25 12:09:57.290 ,2,1,0.,24.0,0.,24.0
1986-01-25 12:10:21.290 ,6,1,0.,24.0,0.,24.0
1986-01-25 12:10:45.290 ,6,0,1.,24.0,0.,24.0
1986-01-25 12:11:09.290 ,6,0,0.,24.0,0.,24.0
1986-01-25 12:11:33.290 ,6,0,0.,24.0,0.,24.0
1986-01-25 12:11:57.290 ,6,0,0.,24.0,0.,24.0
1986-01-25 12:12:21.290 ,6,0,1.,24.0,0.,24.0
1986-01-25 12:12:45.290 ,6,0,1.,24.0,0.,24.0
1986-01-25 12:13:09.290 ,6,0,0.,24.0,0.,24.0
1986-01-25 12:13:33.290 ,6,0,0.,24.0,0.,24.0
1986-01-25 12:13:57.290 ,6,0,0.,24.0,0.,24.0
1986-01-25 12:14:21.290 ,6,0,0.,24.0,0.,24.0
1986-01-25 12:14:45.290 ,6,0,0.,24.0,0.,24.0
1986-01-25 12:15:09.290 ,6,0,0.,24.0,0.,24.0
1986-01-25 12:15:33.290 ,6,0,0.,24.0,0.,24.0
1986-01-25 12:15:57.290 ,6,0,0.,24.0,0.,24.0
1986-01-25 12:16:21.290 ,6,0,0.,24.0,0.,24.0
1986-01-25 12:16:45.290 ,6,0,0.,24.0,0.,24.0
1986-01-25 12:17:09.290 ,6,0,0.,24.0,0.,24.0
1986-01-25 12:17:33.290 ,6,0,0.,24.0,0.,24.0
1986-01-25 12:17:57.290 ,6,0,0.,24.0,0.,24.0
1986-01-25 12:18:21.290 ,6,0,0.,24.0,0.,24.0
1986-01-25 12:18:45.290 ,6,0,1.,24.0,0.,24.0
1986-01-25 12:19:09.290 ,6,0,0.,24.0,0.,24.0
1986-01-25 12:19:33.290 ,6,0,0.,24.0,0.,24.0
1986-01-25 12:19:57.290 ,6,0,1.,24.0,0.,24.0
1986-01-25 12:20:21.290 ,6,0,0.,24.0,0.,24.0
1986-01-25 12:20:45.290 ,6,0,0.,24.0,0.,24.0
1986-01-25 12:21:09.290 ,5,1,0.,24.0,0.,24.0
1986-01-25 12:21:33.290 ,1,1,1.,24.0,0.,24.0
1986-01-25 12:21:57.290 ,2,1,0.,24.0,0.,24.0
1986-01-25 12:22:21.290 ,6,1,0.,24.0,0.,24.0
1986-01-25 12:22:45.290 ,6,0,0.,24.0,0.,24.0
1986-01-25 12:23:09.290 ,6,0,0.,24.0,0.,24.0
1986-01-25 12:23:33.290 ,6,0,1.,24.0,0.,24.0
1986-01-25 12:23:57.290 ,6,0,0.,24.0,0.,24.0
1986-01-25 12:24:21.290 ,6,0,0.,24.0,0.,24.0
1986-01-25 12:24:45.290 ,6,0,0.,24.0,0.,24.0
1986-01-25 12:25:09.290 ,6,0,0.,24.0,0.,24.0
1986-01-25 12:25:33.290 ,6,0,0.,24.0,0.,24.0
1986-01-25 12:25:57.290 ,6,0,0.,24.0,0.,24.0
1986-01-25 12:26:21.290 ,6,0,0.,24.0,0.,24.0
1986-01-25 12:26:45.290 ,6,0,0.,24.0,0.,24.0
1986-01-25 12:27:09.290 ,6,0,0.,24.0,0.,24.0
1986-01-25 12:27:33.290 ,6,0,0.,24.0,0.,24.0
1986-01-25 12:27:57.290 ,6,0,0.,24.0,0.,24.0
1986-01-25 12:28:21.290 ,6,0,0.,24.0,0.,24.0
1986-01-25 12:28:45.290 ,6,0,0.,24.0,0.,24.0
1986-01-25 12:29:09.290 ,6,0,0.,24.0,0.,24.0
1986-01-25 12:29:33.290 ,6,0,0.,24.0,0.,24.0
1986-01-25 12:29:57.290 ,6,0,0.,24.0,0.,24.0
1986-01-25 12:30:21.290 ,6,0,1.,24.0,0.,24.0
1986-01-25 12:30:45.290 ,6,0,0.,24.0,0.,24.0
1986-01-25 12:31:09.290 ,6,0,0.,24.0,0.,24.0
1986-01-25 12:31:33.290 ,6,0,0.,24.0,0.,24.0
1986-01-25 12:31:57.290 ,6,0,0.,24.0,0.,24.0
1986-01-25 12:32:21.290 ,6,0,0.,24.0,0.,24.0
1986-01-25 12:32:45.290 ,6,0,0.,24.0,0.,24.0
1986-01-25 12:33:09.290 ,5,1,0.,24.0,0.,24.0
1986-01-25 12:33:33.290 ,1,1,0.,24.0,0.,24.0
1986-01-25 12:33:57.290 ,2,1,0.,24.0,0.,24.0
1986-01-25 12:34:21.290 ,6,1,0.,24.0,0.,24.0
1986-01-25 12:34:45.290 ,6,0,0.,24.0,0.,24.0
1986-01-25 12:35:09.290 ,6,0,0.,24.0,0.,24.0
1986-01-25 12:35:33.290 ,6,0,0.,24.0,0.,24.0
1986-01-25 12:35:57.290 ,6,0,0.,24.0,0.,24.0
1986-01-25 12:36:21.290 ,6,0,0.,24.0,0.,24.0
1986-01-25 12:36:45.290 ,6,0,0.,24.0,0.,24.0
1986-01-25 12:37:09.290 ,6,0,0.,24.0,0.,24.0
1986-01-25 12:37:33.290 ,6,0,0.,24.0,0.,24.0
1986-01-25 12:37:57.290 ,6,0,0.,24.0,0.,24.0
1986-01-25 12:38:21.290 ,6,0,1.,24.0,0.,24.0
1986-01-25 12:38:45.290 ,6,0,0.,24.0,0.,24.0
1986-01-25 12:39:09.290 ,6,0,0.,24.0,0.,24.0
1986-01-25 12:39:33.290 ,6,0,0.,24.0,0.,24.0
1986-01-25 12:39:57.290 ,6,0,0.,24.0,0.,24.0
1986-01-25 12:40:21.290 ,6,0,0.,24.0,0.,24.0
1986-01-25 12:40:45.290 ,6,0,1.,24.0,0.,24.0
1986-01-25 12:41:09.290 ,6,0,0.,24.0,0.,24.0
1986-01-25 12:41:33.290 ,6,0,0.,24.0,0.,24.0
1986-01-25 12:41:57.290 ,6,0,0.,24.0,0.,24.0
1986-01-25 12:42:21.290 ,6,0,0.,24.0,0.,24.0
1986-01-25 12:42:45.290 ,6,0,0.,24.0,0.,24.0
1986-01-25 12:43:09.290 ,6,0,0.,24.0,0.,24.0
1986-01-25 12:43:33.290 ,6,0,0.,24.0,0.,24.0
1986-01-25 12:43:57.290 ,6,0,0.,24.0,0.,24.0
1986-01-25 12:44:21.290 ,6,0,0.,24.0,0.,24.0
1986-01-25 12:44:45.290 ,6,0,0.,24.0,0.,24.0
1986-01-25 12:45:09.290 ,5,1,0.,24.0,0.,24.0
1986-01-25 12:45:33.290 ,1,1,0.,24.0,0.,24.0
1986-01-25 12:45:57.290 ,2,1,0.,24.0,0.,24.0
1986-01-25 12:46:21.290 ,6,1,0.,24.0,0.,24.0
1986-01-25 12:46:45.290 ,6,0,0.,24.0,0.,24.0
1986-01-25 12:47:09.290 ,6,0,0.,24.0,0.,24.0
1986-01-25 12:47:33.290 ,6,0,0.,24.0,0.,24.0
1986-01-25 12:47:57.290 ,6,0,0.,24.0,0.,24.0
1986-01-25 12:48:21.290 ,6,0,1.,24.0,0.,24.0
1986-01-25 12:48:45.290 ,6,0,0.,24.0,0.,24.0
1986-01-25 12:49:09.290 ,6,0,0.,24.0,0.,24.0
1986-01-25 12:49:33.290 ,6,0,0.,24.0,0.,24.0
1986-01-25 12:49:57.290 ,6,0,0.,24.0,0.,24.0
1986-01-25 12:50:21.290 ,6,0,0.,24.0,0.,24.0
1986-01-25 12:50:45.290 ,6,0,0.,24.0,0.,24.0
1986-01-25 12:51:09.290 ,6,0,0.,24.0,0.,24.0
1986-01-25 12:51:33.290 ,6,0,0.,24.0,0.,24.0
1986-01-25 12:51:57.290 ,6,0,0.,24.0,0.,24.0
1986-01-25 12:52:21.290 ,6,0,0.,24.0,0.,24.0
1986-01-25 12:52:45.290 ,6,0,0.,24.0,0.,24.0
1986-01-25 12:53:09.290 ,6,0,0.,24.0,0.,24.0
1986-01-25 12:53:33.290 ,6,0,0.,24.0,0.,24.0
1986-01-25 12:53:57.290 ,6,0,0.,24.0,0.,24.0
1986-01-25 12:54:21.290 ,6,0,0.,24.0,0.,24.0
1986-01-25 12:54:45.290 ,6,0,0.,24.0,0.,24.0
1986-01-25 12:55:09.290 ,6,0,0.,24.0,0.,24.0
1986-01-25 12:55:33.290 ,6,0,0.,24.0,0.,24.0
1986-01-25 12:55:57.290 ,6,0,0.,24.0,0.,24.0
1986-01-25 12:56:21.290 ,6,0,0.,24.0,0.,24.0
1986-01-25 12:56:45.290 ,6,0,0.,24.0,0.,24.0
1986-01-25 12:57:09.290 ,5,1,0.,24.0,0.,24.0
1986-01-25 12:57:33.290 ,1,1,0.,24.0,0.,24.0
1986-01-25 12:57:57.290 ,2,1,0.,24.0,0.,24.0
1986-01-25 12:58:21.290 ,6,1,0.,24.0,0.,24.0
1986-01-25 12:58:45.290 ,6,0,0.,24.0,0.,24.0
1986-01-25 12:59:09.290 ,6,0,0.,24.0,0.,24.0
1986-01-25 12:59:33.290 ,6,0,0.,24.0,0.,24.0
1986-01-25 12:59:57.290 ,6,0,0.,24.0,0.,24.0
1986-01-25 13:00:21.290 ,6,0,0.,24.0,0.,24.0
1986-01-25 13:00:45.290 ,6,0,0.,24.0,0.,24.0
1986-01-25 13:01:09.290 ,6,0,1.,24.0,0.,24.0
1986-01-25 13:01:33.290 ,6,0,0.,24.0,0.,24.0
1986-01-25 13:01:57.290 ,6,0,0.,24.0,0.,24.0
1986-01-25 13:02:21.290 ,6,0,0.,24.0,0.,24.0
1986-01-25 13:02:45.290 ,6,0,0.,24.0,0.,24.0
1986-01-25 13:03:09.290 ,6,0,0.,24.0,0.,24.0
1986-01-25 13:03:33.290 ,6,0,1.,24.0,0.,24.0
1986-01-25 13:03:57.290 ,6,0,0.,24.0,0.,24.0
1986-01-25 13:04:21.290 ,6,0,0.,24.0,0.,24.0
1986-01-25 13:04:45.290 ,6,0,0.,24.0,0.,24.0
1986-01-25 13:05:09.290 ,6,0,0.,24.0,0.,24.0
1986-01-25 13:05:33.290 ,6,0,0.,24.0,0.,24.0
1986-01-25 13:05:57.290 ,6,0,0.,24.0,0.,24.0
1986-01-25 13:06:21.290 ,6,0,0.,24.0,0.,24.0
1986-01-25 13:06:45.290 ,6,0,0.,24.0,0.,24.0
1986-01-25 13:07:09.290 ,6,0,0.,24.0,0.,24.0
1986-01-25 13:07:33.290 ,6,0,0.,24.0,0.,24.0
1986-01-25 13:07:57.290 ,6,0,0.,24.0,0.,24.0
1986-01-25 13:08:21.290 ,6,0,0.,24.0,0.,24.0
1986-01-25 13:08:45.290 ,6,0,0.,24.0,0.,24.0
1986-01-25 13:09:09.290 ,5,1,1.,24.0,0.,24.0
1986-01-25 13:09:33.290 ,1,1,0.,24.0,0.,24.0
1986-01-25 13:09:57.290 ,2,1,0.,24.0,0.,24.0
1986-01-25 13:10:21.290 ,6,1,0.,24.0,0.,24.0
1986-01-25 13:10:45.290 ,6,0,0.,24.0,0.,24.0
1986-01-25 13:11:09.290 ,6,0,0.,24.0,0.,24.0
1986-01-25 13:11:33.290 ,6,0,0.,24.0,0.,24.0
1986-01-25 13:11:57.290 ,6,0,0.,24.0,0.,24.0
1986-01-25 13:12:21.290 ,6,0,0.,24.0,0.,24.0
1986-01-25 13:12:45.290 ,6,0,0.,24.0,0.,24.0
1986-01-25 13:13:09.290 ,6,0,1.,24.0,0.,24.0
1986-01-25 13:13:33.290 ,6,0,0.,24.0,0.,24.0
1986-01-25 13:13:57.290 ,6,0,0.,24.0,0.,24.0
1986-01-25 13:14:21.290 ,6,0,0.,24.0,0.,24.0
1986-01-25 13:14:45.290 ,6,0,0.,24.0,0.,24.0
1986-01-25 13:15:09.290 ,6,0,0.,24.0,0.,24.0
1986-01-25 13:15:33.290 ,6,0,0.,24.0,0.,24.0
1986-01-25 13:15:57.290 ,6,0,0.,24.0,0.,24.0
1986-01-25 13:16:21.290 ,6,0,0.,24.0,0.,24.0
1986-01-25 13:16:45.290 ,6,0,0.,24.0,0.,24.0
1986-01-25 13:17:09.290 ,6,0,0.,24.0,0.,24.0
1986-01-25 13:17:33.290 ,6,0,0.,24.0,0.,24.0
1986-01-25 13:17:57.290 ,6,0,0.,24.0,0.,24.0
1986-01-25 13:18:21.290 ,6,0,0.,24.0,0.,24.0
1986-01-25 13:18:45.290 ,6,0,0.,24.0,0.,24.0
1986-01-25 13:19:09.290 ,6,0,0.,24.0,0.,24.0
1986-01-25 13:19:33.290 ,6,0,0.,24.0,0.,24.0
1986-01-25 13:19:57.290 ,6,0,0.,24.0,0.,24.0
1986-01-25 13:20:21.290 ,6,0,0.,24.0,0.,24.0
1986-01-25 13:20:45.290 ,6,0,0.,24.0,0.,24.0
1986-01-25 13:21:09.290 ,5,1,0.,24.0,0.,24.0
1986-01-25 13:21:33.290 ,1,1,0.,24.0,0.,24.0
1986-01-25 13:21:57.290 ,2,1,0.,24.0,0.,24.0
1986-01-25 13:22:21.290 ,6,1,1.,24.0,0.,24.0
1986-01-25 13:22:45.290 ,6,0,0.,24.0,0.,24.0
1986-01-25 13:23:09.290 ,6,0,0.,24.0,0.,24.0
1986-01-25 13:23:33.290 ,6,0,0.,24.0,0.,24.0
1986-01-25 13:23:57.290 ,6,0,0.,24.0,0.,24.0
1986-01-25 13:24:21.290 ,6,0,0.,24.0,0.,24.0
1986-01-25 13:24:45.290 ,6,0,1.,24.0,0.,24.0
1986-01-25 13:25:09.290 ,6,0,0.,24.0,0.,24.0
1986-01-25 13:25:33.290 ,6,0,0.,24.0,0.,24.0
1986-01-25 13:25:57.290 ,6,0,0.,24.0,0.,24.0
1986-01-25 13:26:21.290 ,6,0,0.,24.0,0.,24.0
1986-01-25 13:26:45.290 ,6,0,0.,24.0,0.,24.0
1986-01-25 13:27:09.290 ,6,0,0.,24.0,0.,24.0
1986-01-25 13:27:33.290 ,6,0,0.,24.0,0.,24.0
1986-01-25 13:27:57.290 ,6,0,0.,24.0,0.,24.0
1986-01-25 13:28:21.290 ,6,0,0.,24.0,0.,24.0
1986-01-25 13:28:45.290 ,6,0,0.,24.0,0.,24.0
1986-01-25 13:29:09.290 ,6,0,0.,24.0,0.,24.0
1986-01-25 13:29:33.290 ,6,0,0.,24.0,0.,24.0
1986-01-25 13:29:57.290 ,6,0,0.,24.0,0.,24.0
1986-01-25 13:30:21.290 ,6,0,0.,24.0,0.,24.0
1986-01-25 13:30:45.290 ,6,0,0.,24.0,0.,24.0
1986-01-25 13:31:09.290 ,6,0,0.,24.0,0.,24.0
1986-01-25 13:31:33.290 ,6,0,0.,24.0,0.,24.0
1986-01-25 13:31:57.290 ,6,0,0.,24.0,0.,24.0
1986-01-25 13:32:21.280 ,6,0,0.,24.0,0.,24.0
1986-01-25 13:32:45.280 ,6,0,0.,24.0,0.,24.0
1986-01-25 13:33:09.280 ,5,1,0.,24.0,0.,24.0
1986-01-25 13:33:33.280 ,1,1,0.,24.0,0.,24.0
1986-01-25 13:33:57.280 ,2,1,0.,24.0,0.,24.0
1986-01-25 13:34:21.280 ,6,1,1.,24.0,0.,24.0
1986-01-25 13:34:45.280 ,6,0,0.,24.0,0.,24.0
1986-01-25 13:35:09.280 ,6,0,0.,24.0,0.,24.0
1986-01-25 13:35:33.280 ,6,0,0.,24.0,0.,24.0
1986-01-25 13:35:57.280 ,6,0,0.,24.0,0.,24.0
1986-01-25 13:36:21.280 ,6,0,0.,24.0,0.,24.0
1986-01-25 13:36:45.280 ,6,0,0.,24.0,0.,24.0
1986-01-25 13:37:09.280 ,6,0,1.,24.0,0.,24.0
1986-01-25 13:37:33.280 ,6,0,0.,24.0,0.,24.0
1986-01-25 13:37:57.280 ,6,0,0.,24.0,0.,24.0
1986-01-25 13:38:21.280 ,6,0,0.,24.0,0.,24.0
1986-01-25 13:38:45.280 ,6,0,0.,24.0,0.,24.0
1986-01-25 13:39:09.280 ,6,0,0.,24.0,0.,24.0
1986-01-25 13:39:33.280 ,6,0,0.,24.0,0.,24.0
1986-01-25 13:39:57.280 ,6,0,0.,24.0,0.,24.0
1986-01-25 13:40:21.280 ,6,0,1.,24.0,0.,24.0
1986-01-25 13:40:45.280 ,6,0,2.,24.0,0.,24.0
1986-01-25 13:41:09.280 ,6,0,0.,24.0,0.,24.0
1986-01-25 13:41:33.280 ,6,0,0.,24.0,0.,24.0
1986-01-25 13:41:57.280 ,6,0,0.,24.0,0.,24.0
1986-01-25 13:42:21.280 ,6,0,0.,24.0,0.,24.0
1986-01-25 13:42:45.280 ,6,0,0.,24.0,0.,24.0
1986-01-25 13:43:09.280 ,6,0,0.,24.0,0.,24.0
1986-01-25 13:43:33.280 ,6,0,0.,24.0,0.,24.0
1986-01-25 13:43:57.280 ,6,0,0.,24.0,0.,24.0
1986-01-25 13:44:21.280 ,6,0,0.,24.0,0.,24.0
1986-01-25 13:44:45.280 ,6,0,0.,24.0,0.,24.0
1986-01-25 13:45:09.280 ,5,1,0.,24.0,0.,24.0
1986-01-25 13:45:33.280 ,1,1,1.,24.0,0.,24.0
1986-01-25 13:45:57.280 ,2,1,0.,24.0,0.,24.0
1986-01-25 13:46:21.280 ,6,1,0.,24.0,0.,24.0
1986-01-25 13:46:45.280 ,6,0,0.,24.0,0.,24.0
1986-01-25 13:47:09.280 ,6,0,0.,24.0,0.,24.0
1986-01-25 13:47:33.280 ,6,0,0.,24.0,0.,24.0
1986-01-25 13:47:57.280 ,6,0,0.,24.0,0.,24.0
1986-01-25 13:48:21.280 ,6,0,0.,24.0,0.,24.0
1986-01-25 13:48:45.280 ,6,0,0.,24.0,0.,24.0
1986-01-25 13:49:09.280 ,6,0,0.,24.0,0.,24.0
1986-01-25 13:49:33.280 ,6,0,0.,24.0,0.,24.0
1986-01-25 13:49:57.280 ,6,0,1.,24.0,0.,24.0
1986-01-25 13:50:21.280 ,6,0,0.,24.0,0.,24.0
1986-01-25 13:50:45.280 ,6,0,0.,24.0,0.,24.0
1986-01-25 13:51:09.280 ,6,0,1.,24.0,0.,24.0
1986-01-25 13:51:33.280 ,6,0,0.,24.0,0.,24.0
1986-01-25 13:51:57.280 ,6,0,0.,24.0,0.,24.0
1986-01-25 13:52:21.280 ,6,0,0.,24.0,0.,24.0
1986-01-25 13:52:45.280 ,6,0,0.,24.0,0.,24.0
1986-01-25 13:53:09.280 ,6,0,0.,24.0,0.,24.0
1986-01-25 13:53:33.280 ,6,0,0.,24.0,0.,24.0
1986-01-25 13:53:57.280 ,6,0,0.,24.0,0.,24.0
1986-01-25 13:54:21.280 ,6,0,0.,24.0,0.,24.0
1986-01-25 13:54:45.280 ,6,0,0.,24.0,0.,24.0
1986-01-25 13:55:09.280 ,6,0,0.,24.0,0.,24.0
1986-01-25 13:55:33.280 ,6,0,0.,24.0,0.,24.0
1986-01-25 13:55:57.280 ,6,0,1.,24.0,0.,24.0
1986-01-25 13:56:21.280 ,6,0,0.,24.0,0.,24.0
1986-01-25 13:56:45.280 ,6,0,0.,24.0,0.,24.0
1986-01-25 13:57:09.280 ,5,1,1.,24.0,0.,24.0
1986-01-25 13:57:33.280 ,1,1,0.,24.0,0.,24.0
1986-01-25 13:57:57.280 ,2,1,1.,24.0,0.,24.0
1986-01-25 13:58:21.280 ,6,1,0.,24.0,0.,24.0
1986-01-25 13:58:45.280 ,6,0,1.,24.0,0.,24.0
1986-01-25 13:59:09.280 ,6,0,0.,24.0,0.,24.0
1986-01-25 13:59:33.280 ,6,0,1.,24.0,0.,24.0
1986-01-25 13:59:57.280 ,6,0,0.,24.0,0.,24.0
1986-01-25 14:00:21.280 ,6,0,0.,24.0,0.,24.0
1986-01-25 14:00:45.280 ,6,0,0.,24.0,0.,24.0
1986-01-25 14:01:09.280 ,6,0,0.,24.0,0.,24.0
1986-01-25 14:01:33.280 ,6,0,0.,24.0,0.,24.0
1986-01-25 14:01:57.280 ,6,0,0.,24.0,0.,24.0
1986-01-25 14:02:21.280 ,6,0,0.,24.0,0.,24.0
1986-01-25 14:02:45.280 ,6,0,0.,24.0,0.,24.0
1986-01-25 14:03:09.280 ,6,0,0.,24.0,0.,24.0
1986-01-25 14:03:33.280 ,6,0,0.,24.0,0.,24.0
1986-01-25 14:03:57.280 ,6,0,0.,24.0,0.,24.0
1986-01-25 14:04:21.280 ,6,0,0.,24.0,0.,24.0
1986-01-25 14:04:45.280 ,6,0,0.,24.0,0.,24.0
1986-01-25 14:05:09.280 ,6,0,0.,24.0,0.,24.0
1986-01-25 14:05:33.280 ,6,0,0.,24.0,0.,24.0
1986-01-25 14:05:57.280 ,6,0,0.,24.0,0.,24.0
1986-01-25 14:06:21.280 ,6,0,0.,24.0,0.,24.0
1986-01-25 14:06:45.280 ,6,0,0.,24.0,0.,24.0
1986-01-25 14:07:09.280 ,6,0,0.,24.0,0.,24.0
1986-01-25 14:07:33.280 ,6,0,0.,24.0,0.,24.0
1986-01-25 14:07:57.280 ,6,0,0.,24.0,0.,24.0
1986-01-25 14:08:21.280 ,6,0,0.,24.0,0.,24.0
1986-01-25 14:08:45.280 ,6,0,0.,24.0,0.,24.0
1986-01-25 14:09:09.280 ,5,1,0.,24.0,0.,24.0
1986-01-25 14:09:33.280 ,5,0,0.,24.0,0.,24.0
1986-01-25 14:09:57.280 ,6,1,1.,24.0,0.,24.0
1986-01-25 14:10:21.280 ,6,0,0.,24.0,0.,24.0
1986-01-25 14:10:45.280 ,5,1,0.,24.0,0.,24.0
1986-01-25 14:11:09.280 ,5,0,0.,24.0,0.,24.0
1986-01-25 14:11:33.280 ,4,1,0.,24.0,0.,24.0
1986-01-25 14:11:57.280 ,4,0,1.,24.0,0.,24.0
1986-01-25 14:12:21.280 ,3,1,0.,24.0,0.,24.0
1986-01-25 14:12:45.280 ,3,0,0.,24.0,0.,24.0
1986-01-25 14:13:09.280 ,2,1,0.,24.0,0.,24.0
1986-01-25 14:13:33.280 ,2,0,0.,24.0,0.,24.0
1986-01-25 14:13:57.280 ,1,1,0.,24.0,0.,24.0
1986-01-25 14:14:21.280 ,1,0,0.,24.0,0.,24.0
1986-01-25 14:14:45.280 ,0,1,0.,24.0,0.,24.0
1986-01-25 14:15:09.280 ,0,0,0.,24.0,0.,24.0
1986-01-25 14:15:33.280 ,0,1,0.,24.0,0.,24.0
1986-01-25 14:15:57.280 ,0,0,2.,24.0,0.,24.0
1986-01-25 14:16:21.280 ,1,1,0.,24.0,0.,24.0
1986-01-25 14:16:45.280 ,1,0,0.,24.0,0.,24.0
1986-01-25 14:17:09.280 ,2,1,0.,24.0,0.,24.0
1986-01-25 14:17:33.280 ,2,0,0.,24.0,0.,24.0
1986-01-25 14:17:57.280 ,3,1,0.,24.0,0.,24.0
1986-01-25 14:18:21.280 ,3,0,0.,24.0,0.,24.0
1986-01-25 14:18:45.280 ,4,1,0.,24.0,0.,24.0
1986-01-25 14:19:09.280 ,4,0,1.,24.0,0.,24.0
1986-01-25 14:19:33.280 ,5,1,0.,24.0,0.,24.0
1986-01-25 14:19:57.280 ,5,0,0.,24.0,0.,24.0
1986-01-25 14:20:21.280 ,6,1,0.,24.0,0.,24.0
1986-01-25 14:20:45.280 ,6,0,0.,24.0,0.,24.0
1986-01-25 14:21:09.280 ,7,1,0.,24.0,0.,24.0
1986-01-25 14:21:33.280 ,7,0,0.,24.0,0.,24.0
1986-01-25 14:21:57.280 ,7,1,0.,24.0,0.,24.0
1986-01-25 14:22:21.280 ,7,0,1.,24.0,0.,24.0
1986-01-25 14:22:45.280 ,6,1,0.,24.0,0.,24.0
1986-01-25 14:23:09.280 ,6,0,0.,24.0,0.,24.0
1986-01-25 14:23:33.280 ,5,1,0.,24.0,0.,24.0
1986-01-25 14:23:57.280 ,5,0,1.,24.0,0.,24.0
1986-01-25 14:24:21.280 ,4,1,0.,24.0,0.,24.0
1986-01-25 14:24:45.280 ,4,0,0.,24.0,0.,24.0
1986-01-25 14:25:09.280 ,3,1,0.,24.0,0.,24.0
1986-01-25 14:25:33.280 ,3,0,0.,24.0,0.,24.0
1986-01-25 14:25:57.280 ,2,1,1.,24.0,0.,24.0
1986-01-25 14:26:21.280 ,2,0,0.,24.0,0.,24.0
1986-01-25 14:26:45.280 ,1,1,0.,24.0,0.,24.0
1986-01-25 14:27:09.280 ,1,0,0.,24.0,0.,24.0
1986-01-25 14:27:33.280 ,0,1,0.,24.0,0.,24.0
1986-01-25 14:27:57.280 ,0,0,0.,24.0,0.,24.0
1986-01-25 14:28:21.280 ,0,1,0.,24.0,0.,24.0
1986-01-25 14:28:45.280 ,0,0,0.,24.0,0.,24.0
1986-01-25 14:29:09.280 ,1,1,0.,24.0,0.,24.0
1986-01-25 14:29:33.280 ,1,0,0.,24.0,0.,24.0
1986-01-25 14:29:57.280 ,2,1,0.,24.0,0.,24.0
1986-01-25 14:30:21.280 ,2,0,0.,24.0,0.,24.0
1986-01-25 14:30:45.280 ,3,1,1.,24.0,0.,24.0
1986-01-25 14:31:09.280 ,3,0,0.,24.0,0.,24.0
1986-01-25 14:31:33.280 ,4,1,1.,24.0,0.,24.0
1986-01-25 14:31:57.280 ,4,0,0.,24.0,0.,24.0
1986-01-25 14:32:21.280 ,5,1,0.,24.0,0.,24.0
1986-01-25 14:32:45.280 ,5,0,0.,24.0,0.,24.0
1986-01-25 14:33:09.280 ,6,1,0.,24.0,0.,24.0
1986-01-25 14:33:33.280 ,6,0,0.,24.0,0.,24.0
1986-01-25 14:33:57.280 ,7,1,0.,24.0,0.,24.0
1986-01-25 14:34:21.280 ,7,0,0.,24.0,0.,24.0
1986-01-25 14:34:45.280 ,7,1,1.,24.0,0.,24.0
1986-01-25 14:35:09.280 ,7,0,0.,24.0,0.,24.0
1986-01-25 14:35:33.280 ,6,1,1.,24.0,0.,24.0
1986-01-25 14:35:57.280 ,6,0,0.,24.0,0.,24.0
1986-01-25 14:36:21.280 ,5,1,0.,24.0,0.,24.0
1986-01-25 14:36:45.280 ,5,0,0.,24.0,0.,24.0
1986-01-25 14:37:09.280 ,4,1,0.,24.0,0.,24.0
1986-01-25 14:37:33.280 ,4,0,0.,24.0,0.,24.0
1986-01-25 14:37:57.280 ,3,1,0.,24.0,0.,24.0
1986-01-25 14:38:21.280 ,3,0,0.,24.0,0.,24.0
1986-01-25 14:38:45.280 ,2,1,0.,24.0,0.,24.0
1986-01-25 14:39:09.280 ,2,0,0.,24.0,0.,24.0
1986-01-25 14:39:33.280 ,1,1,1.,24.0,0.,24.0
1986-01-25 14:39:57.280 ,1,0,0.,24.0,0.,24.0
1986-01-25 14:40:21.280 ,0,1,0.,24.0,0.,24.0
1986-01-25 14:40:45.280 ,0,0,0.,24.0,0.,24.0
1986-01-25 14:41:09.280 ,0,1,0.,24.0,0.,24.0
1986-01-25 14:41:33.280 ,0,0,0.,24.0,0.,24.0
1986-01-25 14:41:57.280 ,1,1,0.,24.0,0.,24.0
1986-01-25 14:42:21.280 ,1,0,0.,24.0,0.,24.0
1986-01-25 14:42:45.280 ,2,1,0.,24.0,0.,24.0
1986-01-25 14:43:09.280 ,2,0,0.,24.0,0.,24.0
1986-01-25 14:43:33.280 ,3,1,0.,24.0,0.,24.0
1986-01-25 14:43:57.280 ,3,0,0.,24.0,0.,24.0
1986-01-25 14:44:21.280 ,4,1,0.,24.0,0.,24.0
1986-01-25 14:44:45.280 ,4,0,1.,24.0,0.,24.0
1986-01-25 14:45:09.280 ,5,1,0.,24.0,0.,24.0
1986-01-25 14:45:33.280 ,5,0,0.,24.0,0.,24.0
1986-01-25 14:45:57.280 ,6,1,0.,24.0,0.,24.0
1986-01-25 14:46:21.280 ,6,0,0.,24.0,0.,24.0
1986-01-25 14:46:45.280 ,7,1,1.,24.0,0.,24.0
1986-01-25 14:47:09.280 ,7,0,0.,24.0,0.,24.0
1986-01-25 14:47:33.280 ,7,1,1.,24.0,0.,24.0
1986-01-25 14:47:57.280 ,7,0,0.,24.0,0.,24.0
1986-01-25 14:48:21.280 ,6,1,0.,24.0,0.,24.0
1986-01-25 14:48:45.280 ,6,0,0.,24.0,0.,24.0
1986-01-25 14:49:09.280 ,5,1,0.,24.0,0.,24.0
1986-01-25 14:49:33.280 ,5,0,0.,24.0,0.,24.0
1986-01-25 14:49:57.280 ,4,1,0.,24.0,0.,24.0
1986-01-25 14:50:21.280 ,4,0,0.,24.0,0.,24.0
1986-01-25 14:50:45.280 ,3,1,0.,24.0,0.,24.0
1986-01-25 14:51:09.280 ,3,0,0.,24.0,0.,24.0
1986-01-25 14:51:33.280 ,2,1,0.,24.0,0.,24.0
1986-01-25 14:51:57.280 ,2,0,0.,24.0,0.,24.0
1986-01-25 14:52:21.280 ,1,1,0.,24.0,0.,24.0
1986-01-25 14:52:45.280 ,1,0,1.,24.0,0.,24.0
1986-01-25 14:53:09.280 ,0,1,0.,24.0,0.,24.0
1986-01-25 14:53:33.280 ,0,0,0.,24.0,0.,24.0
1986-01-25 14:53:57.280 ,0,1,0.,24.0,0.,24.0
1986-01-25 14:54:21.280 ,0,0,0.,24.0,0.,24.0
1986-01-25 14:54:45.280 ,1,1,0.,24.0,0.,24.0
1986-01-25 14:55:09.280 ,1,0,0.,24.0,0.,24.0
1986-01-25 14:55:33.280 ,2,1,1.,24.0,0.,24.0
1986-01-25 14:55:57.280 ,2,0,0.,24.0,0.,24.0
1986-01-25 14:56:21.280 ,3,1,0.,24.0,0.,24.0
1986-01-25 14:56:45.280 ,3,0,0.,24.0,0.,24.0
1986-01-25 14:57:09.280 ,4,1,0.,24.0,0.,24.0
1986-01-25 14:57:33.280 ,4,0,0.,24.0,0.,24.0
1986-01-25 14:57:57.280 ,5,1,1.,24.0,0.,24.0
1986-01-25 14:58:21.280 ,5,0,1.,24.0,0.,24.0
1986-01-25 14:58:45.280 ,6,1,0.,24.0,0.,24.0
1986-01-25 14:59:09.280 ,6,0,0.,24.0,0.,24.0
1986-01-25 14:59:33.280 ,7,1,0.,24.0,0.,24.0
1986-01-25 14:59:57.280 ,7,0,0.,24.0,0.,24.0
1986-01-25 15:00:21.280 ,7,1,0.,24.0,0.,24.0
